Terminal Aerodrome Forecast
Issued by NWS Sioux Falls, SD

Home | Current Version | Previous Version | Text Only | Print | Product List | Glossary Off
Versions: 1 2 3 4 5 6 7 8 9 10 11 12 13 14 15 16

000
FTUS43 KFSD 280537
TAFFSD
TAF
KFSD 280537Z 2806/2906 15013G19KT P6SM SCT100 OVC220
      TEMPO 2808/2810 VRB15G35KT 4SM TSRA OVC035CB
     FM281000 18010KT 6SM BR SCT007
     FM281600 29012G20KT P6SM BKN025
     FM282000 29012G20KT P6SM SKC
     FM290100 28008KT P6SM SKC=

USA.gov is the U.S. government's official web portal to all federal, state and local government web resources and services.